"Pseudo-MPEC" for MLO0091

Created 2021 Dec 2 20:07:37 UT using Find_Orb

Click here for an explanation of pseudo-MPECs

 
 Astrometry: 
     MLO0091 KC2021 11 12hhqrwAstrometryWt]7wQYv[C\6;aw`L.@GfjccpQQA$)xxfyj=*U76
     MLO0091 KC2021 11 12I9fGOV7.cBd\fNy\Yredacted;+W7hV6T/Km)dY*mjF*clickxHGU76
     MLO0091 KC2021 11 12nk2*1:here)nMfor4%eV5!0D[5ldexplanationSKoG;o+m-ac?kU76

Station data:
(U76) Maury Lewin Observatory, Glendora  (N34.142213 W117.872100)
   US/California.

Orbital elements:  MLO0091
   Perihelion 2021 Dec 12.118908 +/- 44.5908 TT =  2:51:13 (JD 2459560.618908)
Epoch 2021 Nov 12.0 TT = JDT 2459530.5   Earth MOID: 0.3783   AutoNEOCP
M 347.82304416 +/- 23.130981        (J2000 ecliptic)
n   0.40429606 +/- 0.313578         Peri.  107.83004 +/- 85.053511
a   1.81135278 +/- 0.936756         Node   320.13641 +/- 37.745549
e   0.3180506 +/- 0.273157          Incl.   18.70350 +/- 10.095297
P   2.44/890.42d           H 20.0   G  0.15   U 12.0  SR
q 1.23525077 +/- 0.349577    Q 2.38745478 +/- 72.566
From 3 observations 2021 Nov. 12 (2.7 hr); mean residual 0".40
Residuals in arcseconds: 
211112 U76  .02-  .41+    211112 U76  .02+  .80-    211112 U76  .00   .40+    

Ephemerides (geocentric):
Date (UTC) HH   RA              Dec         delta   r     elong  mag " sig PA
---- -- -- --  -------------   -----------  ------ ------ -----  --- ---- ---
2021 12 02 20  22 58 32.286   +57 31 29.30  .47044 1.2379 111.4 20.6 817'  54
2021 12 02 21  22 58 39.448   +57 31 27.64  .47044 1.2379 111.4 20.6 819'  54
2021 12 02 22  22 58 46.623   +57 31 25.98  .47045 1.2379 111.4 20.6 820'  54
2021 12 02 23  22 58 53.811   +57 31 24.30  .47045 1.2378 111.4 20.6 822'  54
2021 12 03 00  22 59 01.012   +57 31 22.62  .47045 1.2378 111.4 20.6 823'  54
2021 12 03 01  22 59 08.226   +57 31 20.92  .47046 1.2378 111.4 20.6 825'  54
2021 12 03 02  22 59 15.453   +57 31 19.21  .47046 1.2378 111.4 20.6 826'  54
2021 12 03 03  22 59 22.693   +57 31 17.48  .47046 1.2377 111.4 20.6 828'  54
2021 12 03 04  22 59 29.946   +57 31 15.75  .47047 1.2377 111.4 20.6 829'  54
2021 12 03 05  22 59 37.212   +57 31 14.00  .47047 1.2377 111.4 20.6 830'  54
2021 12 03 06  22 59 44.491   +57 31 12.24  .47047 1.2377 111.4 20.6 832'  54
2021 12 03 07  22 59 51.783   +57 31 10.48  .47047 1.2376 111.4 20.6 833'  54
2021 12 03 08  22 59 59.088   +57 31 08.69  .47048 1.2376 111.4 20.6 834'  53
2021 12 03 09  23 00 06.406   +57 31 06.90  .47048 1.2376 111.4 20.6 836'  53
2021 12 03 10  23 00 13.737   +57 31 05.09  .47048 1.2376 111.4 20.6 837'  53
2021 12 03 11  23 00 21.081   +57 31 03.28  .47049 1.2376 111.4 20.6 838'  53
2021 12 03 12  23 00 28.438   +57 31 01.45  .47049 1.2375 111.4 20.6 840'  53
2021 12 03 13  23 00 35.808   +57 30 59.61  .47049 1.2375 111.4 20.6 841'  53
2021 12 03 14  23 00 43.191   +57 30 57.75  .47050 1.2375 111.4 20.6 842'  53
2021 12 03 15  23 00 50.587   +57 30 55.88  .47050 1.2375 111.4 20.6 844'  53
2021 12 03 16  23 00 57.995   +57 30 54.01  .47050 1.2375 111.4 20.6 845'  53
2021 12 03 17  23 01 05.417   +57 30 52.12  .47051 1.2374 111.4 20.6 846'  53
2021 12 03 18  23 01 12.852   +57 30 50.21  .47051 1.2374 111.4 20.6 848'  53
2021 12 03 19  23 01 20.300   +57 30 48.30  .47051 1.2374 111.4 20.6 849'  53
2021 12 03 20  23 01 27.761   +57 30 46.37  .47052 1.2374 111.4 20.6 850'  53
2021 12 03 21  23 01 35.234   +57 30 44.43  .47052 1.2373 111.4 20.6 852'  53
2021 12 03 22  23 01 42.721   +57 30 42.47  .47052 1.2373 111.4 20.6 853'  53
2021 12 03 23  23 01 50.220   +57 30 40.51  .47053 1.2373 111.4 20.6 855'  53
2021 12 04 00  23 01 57.733   +57 30 38.53  .47053 1.2373 111.4 20.6 856'  53
2021 12 04 01  23 02 05.258   +57 30 36.54  .47053 1.2373 111.4 20.6 857'  53
2021 12 04 02  23 02 12.797   +57 30 34.53  .47054 1.2372 111.4 20.6 859'  53
2021 12 04 03  23 02 20.348   +57 30 32.51  .47054 1.2372 111.4 20.6 860'  53
2021 12 04 04  23 02 27.913   +57 30 30.48  .47054 1.2372 111.3 20.6 862'  53
2021 12 04 05  23 02 35.490   +57 30 28.44  .47055 1.2372 111.3 20.6 863'  53
2021 12 04 06  23 02 43.080   +57 30 26.38  .47055 1.2372 111.3 20.6 865'  53
2021 12 04 07  23 02 50.683   +57 30 24.31  .47055 1.2371 111.3 20.6 866'  53
2021 12 04 08  23 02 58.299   +57 30 22.23  .47056 1.2371 111.3 20.6 868'  53
2021 12 04 09  23 03 05.928   +57 30 20.13  .47056 1.2371 111.3 20.6 869'  53
2021 12 04 10  23 03 13.570   +57 30 18.03  .47056 1.2371 111.3 20.6 871'  53
2021 12 04 11  23 03 21.225   +57 30 15.90  .47057 1.2371 111.3 20.6 872'  52
2021 12 04 12  23 03 28.893   +57 30 13.77  .47057 1.2370 111.3 20.6 874'  52
2021 12 04 13  23 03 36.573   +57 30 11.62  .47057 1.2370 111.3 20.6 876'  52
2021 12 04 14  23 03 44.267   +57 30 09.45  .47058 1.2370 111.3 20.6 877'  52
2021 12 04 15  23 03 51.973   +57 30 07.28  .47058 1.2370 111.3 20.6 879'  52
2021 12 04 16  23 03 59.693   +57 30 05.09  .47058 1.2370 111.3 20.6 881'  52
2021 12 04 17  23 04 07.425   +57 30 02.88  .47059 1.2369 111.3 20.6 882'  52
2021 12 04 18  23 04 15.170   +57 30 00.67  .47059 1.2369 111.3 20.6 884'  52
2021 12 04 19  23 04 22.928   +57 29 58.43  .47059 1.2369 111.3 20.6 886'  52